Location: Ffm
(50.0000°N, 8.5000°E)
Time: 10:04:08
(UTC+01:00)

Envisat - Pass Details

Date: 01 November 2020
Orbit: 764 x 766 km, 98.1° (Epoch: 03 December)

Event Time Altitude Azimuth Distance (km) Brightness Sun altitude
Rises 06:31:22 0° 14° (NNE) 3,244 6.3 -7.7°
Reaches altitude 10° 06:33:41 10° 16° (NNE) 2,313 5.5 -7.3°
Maximum altitude 06:38:48 80° 103° (ESE) 782 3.2 -6.5°
Drops below altitude 10° 06:43:52 10° 192° (SSW) 2,294 5.5 -5.8°
Sets 06:46:09 0° 193° (SSW) 3,216 6.3 -5.4°
